FW2619 Weather Reports


Display with metric or nautical units.
time (UTC)temp
F
wind
direction
speed
MPH
gust
MPH
rain 1hr
in
rain 24hr
in
rain mn
in
humidity
%
barometer
mb
20240717213904 83 280 0.0 1.0 0.00 0.01 0.00 38 1015.8
20240717213404 83 287 0.0 1.0 0.00 0.01 0.00 38 1015.8
20240717211905 81 280 0.0 0.0 0.00 0.01 0.00 40 1015.8
20240717211408 81 247 0.0 0.0 0.00 0.01 0.00 41 1015.8
20240717210907 80 235 0.0 0.0 0.00 0.01 0.00 42 1015.8
20240717210406 80 235 0.0 0.0 0.00 0.01 0.00 42 1015.7
20240717204907 80 235 0.0 0.0 0.00 0.01 0.00 42 1015.7
20240717204405 80 233 0.0 1.0 0.00 0.01 0.00 41 1015.8
20240717203904 80 266 0.0 1.0 0.00 0.01 0.00 40 1016.1
20240717203403 80 238 0.0 1.0 0.00 0.01 0.00 41 1016.2
20240717201904 80 317 0.0 0.0 0.00 0.01 0.00 41 1016.0
20240717200906 80 317 0.0 0.0 0.00 0.01 0.00 41 1016.0
20240717194408 82 347 0.0 1.0 0.00 0.01 0.00 39 1016.0
20240717193907 82 350 0.0 0.0 0.00 0.01 0.00 38 1016.0
20240717191903 85 355 0.0 0.0 0.00 0.01 0.00 34 1016.2
20240717191406 86 27 0.0 0.0 0.00 0.01 0.00 33 1016.3
20240717190905 87 104 0.0 1.0 0.00 0.01 0.00 34 1016.3
20240717190404 86 109 0.0 2.0 0.00 0.01 0.00 35 1016.3
20240717184910 86 323 0.0 0.0 0.00 0.01 0.00 35 1016.2
20240717184408 86 345 0.0 0.0 0.00 0.01 0.00 36 1016.3
20240717183907 85 345 0.0 0.0 0.00 0.01 0.00 36 1016.4
20240717181409 82 20 0.0 0.0 0.00 0.01 0.00 37 1016.9
20240717180909 82 20 0.0 0.0 0.00 0.01 0.00 39 1017.0
20240717180407 81 15 0.0 0.0 0.00 0.01 0.00 40 1017.1
20240717174409 81 16 0.0 0.0 0.00 0.01 0.00 40 1017.5
20240717173908 81 21 0.0 0.0 0.00 0.01 0.00 40 1017.5
20240717171411 80 67 0.0 0.0 0.00 0.01 0.00 43 1017.7
20240717170910 80 67 0.0 0.0 0.00 0.01 0.00 43 1017.8
20240717170409 80 68 0.0 2.0 0.00 0.01 0.00 43 1017.8
20240717164910 79 86 0.0 2.0 0.00 0.01 0.00 45 1017.9
20240717164408 78 89 0.0 0.0 0.00 0.01 0.00 46 1017.9
20240717163407 77 340 0.0 3.0 0.00 0.01 0.00 46 1018.1
20240717161907 77 292 0.0 0.0 0.00 0.01 0.00 48 1018.2
20240717161409 76 301 0.0 2.0 0.00 0.01 0.00 48 1018.2
20240717160908 76 302 0.0 0.0 0.00 0.01 0.00 47 1018.2
20240717160407 75 302 0.0 1.0 0.00 0.01 0.00 50 1018.2
20240717154407 73 299 0.0 1.0 0.00 0.01 0.00 52 1018.4
20240717153409 73 308 0.0 1.0 0.00 0.01 0.00 52 1018.5
20240717151910 71 173 0.0 0.0 0.00 0.01 0.00 55 1018.4
20240717150907 70 173 0.0 0.0 0.00 0.01 0.00 59 1018.8
20240717144907 68 173 0.0 0.0 0.00 0.01 0.00 60 1018.6
20240717144410 68 173 0.0 0.0 0.00 0.01 0.00 61 1018.6
20240717143408 68 173 0.0 0.0 0.00 0.01 0.00 60 1018.5
20240717141909 68 173 0.0 0.0 0.00 0.01 0.00 60 1018.4
20240717141407 68 173 0.0 0.0 0.00 0.01 0.00 59 1018.4
20240717140911 67 173 0.0 0.0 0.00 0.01 0.00 59 1018.5
20240717140410 67 173 0.0 0.0 0.00 0.01 0.00 59 1018.4
20240717134906 66 173 0.0 0.0 0.00 0.01 0.00 61 1018.3
20240717134408 65 173 0.0 0.0 0.00 0.01 0.00 62 1018.3
20240717133907 64 173 0.0 0.0 0.00 0.01 0.00 65 1018.3
20240717131907 61 173 0.0 0.0 0.00 0.01 0.00 74 1018.0
20240717131408 60 173 0.0 0.0 0.00 0.01 0.00 76 1017.9
20240717130907 59 173 0.0 0.0 0.00 0.01 0.00 77 1017.9
20240717130406 59 173 0.0 0.0 0.00 0.01 0.00 80 1017.9
20240717124410 58 173 0.0 0.0 0.00 0.01 0.00 81 1017.6
20240717123409 58 173 0.0 0.0 0.00 0.01 0.00 82 1017.4
20240717121906 58 173 0.0 0.0 0.00 0.01 0.00 82 1017.4
20240717121408 58 173 0.0 0.0 0.00 0.01 0.00 81 1017.4
20240717120406 58 173 0.0 0.0 0.00 0.01 0.00 81 1017.1
20240717113906 59 173 0.0 0.0 0.00 0.01 0.00 79 1016.8
20240717113409 59 173 0.0 0.0 0.00 0.01 0.00 80 1016.7
20240717111911 59 173 0.0 0.0 0.00 0.01 0.00 79 1016.7
20240717111409 59 173 0.0 0.0 0.00 0.01 0.00 78 1016.6
20240717110908 59 173 0.0 0.0 0.00 0.01 0.00 79 1016.6
20240717110407 59 173 0.0 0.0 0.00 0.01 0.00 79 1016.6
20240717104909 58 173 0.0 0.0 0.00 0.01 0.00 80 1016.4
20240717103907 58 173 0.0 0.0 0.00 0.01 0.00 80 1016.3
20240717103406 58 173 0.0 0.0 0.00 0.01 0.00 80 1016.2
20240717101907 58 173 0.0 0.0 0.00 0.01 0.00 79 1015.9
20240717101411 59 173 0.0 0.0 0.00 0.01 0.00 79 1015.9
20240717100910 59 173 0.0 0.0 0.00 0.01 0.00 78 1015.9
20240717100409 59 173 0.0 0.0 0.00 0.01 0.00 78 1015.8
20240717094905 59 173 0.0 0.0 0.00 0.01 0.00 77 1015.6
20240717094409 60 173 0.0 0.0 0.00 0.01 0.00 76 1015.5
20240717093408 60 173 0.0 0.0 0.00 0.01 0.00 75 1015.4
20240717090906 61 173 0.0 0.0 0.00 0.01 0.00 73 1015.1
20240717090405 62 173 0.0 0.0 0.00 0.01 0.00 73 1015.1
20240717084907 62 173 0.0 0.0 0.00 0.01 0.00 72 1014.8
20240717084406 62 173 0.0 0.0 0.00 0.01 0.00 73 1014.9
20240717083909 62 173 0.0 0.0 0.00 0.01 0.00 73 1014.9
20240717083409 61 173 0.0 0.0 0.00 0.01 0.00 72 1014.8
20240717081905 61 173 0.0 0.0 0.00 0.01 0.00 72 1014.7
20240717081408 61 173 0.0 0.0 0.00 0.01 0.00 71 1014.7
20240717080907 61 173 0.0 0.0 0.00 0.01 0.00 71 1014.7
20240717080406 61 173 0.0 0.0 0.00 0.01 0.00 71 1014.7
20240717074406 62 173 0.0 0.0 0.00 0.01 0.00 70 1014.5
20240717073905 62 173 0.0 0.0 0.00 0.01 0.00 70 1014.5
20240717073405 63 173 0.0 0.0 0.00 0.01 0.00 70 1014.5
20240717071906 64 173 0.0 0.0 0.00 0.01 0.00 66 1014.5
20240717071409 64 173 0.0 0.0 0.00 0.01 0.00 66 1014.5
20240717070908 65 173 0.0 0.0 0.00 0.01 0.00 65 1014.5
20240717070407 65 173 0.0 0.0 0.00 0.01 0.00 64 1014.5
20240717064909 66 173 0.0 0.0 0.00 0.01 0.00 61 1014.3
20240717064407 66 173 0.0 0.0 0.00 0.01 0.00 60 1014.2
20240717063906 66 173 0.0 0.0 0.00 0.01 0.00 60 1014.2
20240717063405 66 173 0.0 0.0 0.00 0.01 0.00 59 1014.2
20240717061907 66 173 0.0 0.0 0.00 0.01 0.00 61 1014.2
20240717060910 67 173 0.0 0.0 0.00 0.01 0.00 61 1014.0
20240717060407 67 173 0.0 0.0 0.00 0.01 0.00 60 1014.1
20240717054908 68 173 0.0 0.0 0.00 0.01 0.01 60 1014.1
20240717054407 68 173 0.0 0.0 0.00 0.01 0.01 59 1014.2
20240717053905 68 173 0.0 0.0 0.00 0.01 0.01 59 1014.3
20240717053405 68 173 0.0 0.0 0.00 0.01 0.01 60 1014.2
20240717051905 68 173 0.0 0.0 0.00 0.01 0.01 61 1014.3
20240717051409 67 173 0.0 0.0 0.00 0.01 0.01 62 1014.2
20240717050908 67 173 0.0 0.0 0.00 0.01 0.01 63 1014.2
20240717050407 67 173 0.0 0.0 0.00 0.01 0.01 63 1014.2
20240717044405 67 173 0.0 0.0 0.00 0.01 0.01 65 1014.3
20240717043905 68 173 0.0 0.0 0.00 0.01 0.01 65 1014.3
20240717043408 68 173 0.0 0.0 0.00 0.01 0.01 63 1014.3
20240717041905 69 173 0.0 0.0 0.00 0.01 0.01 60 1014.1
20240717041408 69 173 0.0 0.0 0.00 0.01 0.01 60 1014.1
20240717040907 69 173 0.0 0.0 0.00 0.01 0.01 59 1014.1
20240717040406 70 173 0.0 0.0 0.00 0.01 0.01 58 1014.0
20240717034908 69 173 0.0 0.0 0.00 0.01 0.01 58 1014.0
20240717034406 69 173 0.0 0.0 0.00 0.01 0.01 59 1013.9
20240717033905 70 173 0.0 0.0 0.00 0.01 0.01 59 1013.9
20240717033405 70 173 0.0 0.0 0.00 0.01 0.01 59 1013.8
20240717031906 70 173 0.0 0.0 0.00 0.01 0.01 58 1013.7
20240717031408 71 173 0.0 0.0 0.00 0.01 0.01 57 1013.6
20240717030406 71 173 0.0 0.0 0.00 0.01 0.01 56 1013.6
20240717023409 73 173 0.0 0.0 0.00 0.01 0.01 56 1013.4
20240717021904 73 173 0.0 0.0 0.00 0.01 0.01 56 1013.5
20240717021409 73 173 0.0 0.0 0.00 0.01 0.01 55 1013.5
20240717020907 73 173 0.0 0.0 0.00 0.01 0.01 54 1013.5
20240717020405 74 173 0.0 0.0 0.00 0.01 0.01 54 1013.5
20240717014904 74 173 0.0 0.0 0.00 0.01 0.01 53 1013.4
20240717014407 74 173 0.0 0.0 0.00 0.01 0.01 53 1013.4
20240717013905 74 173 0.0 0.0 0.00 0.01 0.01 53 1013.3
20240717011904 75 173 0.0 0.0 0.00 0.01 0.01 50 1013.0
20240717011408 75 173 0.0 0.0 0.00 0.01 0.01 48 1013.0
20240717010906 75 173 0.0 0.0 0.00 0.01 0.01 47 1013.1
20240717010406 75 173 0.0 0.0 0.00 0.01 0.01 47 1013.1
20240717004906 76 173 0.0 0.0 0.00 0.01 0.01 46 1013.1
20240717004409 77 173 0.0 0.0 0.00 0.01 0.01 45 1013.1
20240717003407 77 173 0.0 0.0 0.00 0.01 0.01 42 1013.1
20240717001908 79 192 0.0 0.0 0.00 0.01 0.01 41 1013.2
20240717001406 78 197 0.0 0.0 0.00 0.01 0.01 41 1013.3
20240717000905 78 241 0.0 0.0 0.00 0.01 0.01 42 1013.2
20240717000404 78 176 0.0 1.0 0.00 0.01 0.01 43 1013.2
20240716234904 75 210 0.0 0.0 0.01 0.01 0.01 50 1013.3
20240716233906 73 213 0.0 1.0 0.01 0.01 0.01 56 1013.4
20240716231906 72 197 0.0 1.0 0.01 0.01 0.01 66 1013.4
20240716231408 72 152 0.0 1.0 0.01 0.01 0.01 61 1013.7
20240716224907 77 296 0.0 0.0 0.00 0.00 0.00 44 1014.8
20240716224406 78 296 0.0 0.0 0.00 0.00 0.00 43 1014.8
20240716223907 78 299 0.0 0.0 0.00 0.00 0.00 44 1014.7
20240716223406 78 299 0.0 0.0 0.00 0.00 0.00 42 1014.7
20240716221404 76 305 0.0 0.0 0.00 0.00 0.00 46 1014.9
20240716220904 75 277 0.0 1.0 0.00 0.00 0.00 47 1014.9
20240716214913 74 338 0.0 0.0 0.00 0.00 0.00 46 1014.9
20240716214433 74 347 0.0 2.0 0.00 0.00 0.00 46 1015.0